Location: Newark
(7.0858°N, 171.3717°E)
Time: 07:49:23
(UTC+00:00)

A-11 Canister half - Pass Details

Date: 29 July 2021
Orbit: 1526 x 1683 km, 47.3° (Epoch: 16 September)

Event Time Altitude Azimuth Distance (km) Brightness Sun altitude
Rises 07:48:10 0° 334° (NNW) 4,776 12.4 -13.4°
Reaches altitude 10° 07:51:40 10° 342° (NNW) 3,768 11.6 -14.2°
Maximum altitude 08:00:09 36° 46° (NE) 2,273 9.7 -16.2°
Enters shadow 08:05:16 22° 95° (E) 2,897 9.9 -17.4°
